AirNav   Everest Fuels
 
 571 users online  

3NJ1 Pemberton Airport
Pemberton, New Jersey, USA

GOING TO PEMBERTON?


FAA INFORMATION EFFECTIVE 21 MAY 2020

Location

FAA Identifier: 3NJ1
Lat/Long: 39-58-55.8400N 074-41-41.9100W
39-58.930667N 074-41.698500W
39.9821778,-74.6949750
(estimated)
Elevation: 65 ft. / 20 m (estimated)
Variation: 12W (1985)
From city: 1 mile NW of PEMBERTON, NJ
Time zone: UTC -4 (UTC -5 during Standard Time)
Zip code: 08068

Airport Operations

Airport use: Private use. Permission required prior to landing
Activation date: 05/1951
Control tower: no
ARTCC: NEW YORK CENTER
FSS: MILLVILLE FLIGHT SERVICE STATION
Attendance: DAYLIGHT HOURS
Wind indicator: yes
Segmented circle: no

Airport Communications

WX ASOS at VAY (7 nm W): 119.325 (609-267-1176)
WX ASOS at PNE (16 nm W): 121.15 (215-677-0146)
WX ASOS at TTN (18 nm N): 126.775 (609-538-8690)
WX AWOS-3PT at MJX (19 nm E): 119.875 (732-797-2542)
WX AWOS-AV at N81 (19 nm S): 122.7

Nearby radio navigation aids

VOR radial/distance  VOR name  Freq  Var
GXUr262/4.8MC GUIRE VORTAC110.6012W
CYNr319/15.6COYLE VORTAC113.4010W
RBVr225/16.1ROBBINSVILLE VORTAC113.8010W
ARDr159/19.0YARDLEY VOR/DME108.2010W
VCNr035/29.5CEDAR LAKE VOR/DME115.2010W
COLr242/31.5COLTS NECK VOR/DME115.4011W
ACYr000/32.0ATLANTIC CITY VORTAC117.1510W
OODr063/34.9WOODSTOWN VORTAC112.8010W
SBJr187/36.1SOLBERG VOR/DME112.9010W

 
NDB name  Hdg/Dist  Freq  Var  ID
LAKEHURST268/16.939611WNEL -. . .-..
AMBLER120/28.427512WING .. -. --.
RAINBOW042/39.536311WRNB .-. -. -...

Airport Services

Parking: tiedowns
Airframe service: MAJOR
Powerplant service: MAJOR

Runway Information

Runway 4/22

Dimensions: 2568 x 100 ft. / 783 x 30 m
Surface: turf, in fair condition
Runway edge markings: YELLOW BUCKETS MARK RY ENDS AND EDGES.
RUNWAY 4  RUNWAY 22
Traffic pattern: leftleft
Obstructions: 60 ft. tree, 5 ft. from runway, 90 ft. right of centerline68 ft. tree, 140 ft. from runway, 102 ft. right of centerline, 2:1 slope to clear

Airport Ownership and Management from official FAA records

Ownership: Privately-owned
Owner: METRO AIRWAYS INC
227 PENN-LAWR
PENNINGTON, NJ 08524
Phone 609-575-7284
Manager: FRANK VITELLARO
227 PENN-LAWR
PENNINGTON, NJ 08868
Phone 609-575-7284

Airport Operational Statistics

Aircraft based on the field: 24
Single engine airplanes: 12
Ultralights: 12
    
Aircraft operations: avg 33/day *
92% local general aviation
8% transient general aviation
* for 12-month period ending 02 June 1998

Additional Remarks

TREES EACH END RWY 04/22.
ULTRALGT ACTIVITY ON AND INVOF ARPT.
FOR CD CTC MC GUIRE APCH AT 609-754-2767.

Instrument Procedures

There are no published instrument procedures at 3NJ1.

Some nearby airports with instrument procedures:

KWRI - McGuire Field (Joint Base Mc Guire Dix Lakehurst) Airport (5 nm NE)
N14 - Flying W Airport (6 nm SW)
KVAY - South Jersey Regional Airport (7 nm W)
N87 - Trenton-Robbinsville Airport (15 nm N)
KPNE - Northeast Philadelphia Airport (16 nm NW)
KNEL - Lakehurst Maxfield Field Airport (16 nm E)
19N - Camden County Airport (17 nm SW)
KTTN - Trenton Mercer Airport (18 nm N)
KMJX - Ocean County Airport (19 nm E)
N81 - Hammonton Municipal Airport (19 nm S)
 
Loc | Ops | Rwys | IFR | FBO | Links
Com | Nav | Svcs | Stats | Notes
Area around 3NJ1 (Pemberton Airport)
 
Road maps at: MapQuest Bing Google
 
Aerial photo
WARNING: Photo may not be current or correct
Aerial photo of 3NJ1 (Pemberton Airport)
Photo by Scott Krzysik
Photo taken 26-May-2010

Do you have a better or more recent aerial photo of Pemberton Airport that you would like to share? If so, please send us your photo.

 
Sectional chart

 
Airport distance calculator
Flying to Pemberton Airport? Find the distance to fly.

From to 3NJ1

Sunrise and sunset
Times for 27-May-2020
 Local
(UTC-4)
 Zulu
(UTC)
Morning civil twilight05:0309:03
Sunrise05:3509:35
Sunset20:1700:17
Evening civil twilight20:4900:49

Current date and time
Zulu (UTC)  27-May-2020 10:44:23
Local (UTC-4)  27-May-2020 06:44:23
 
METAR
KWRI 
6nm E 
270956Z 00000KT 3/8SM R06/1800V5000FT FG VV002 14/14 A3023 RMK AO2A SLP236 T01430143 $
KVAY 
7nm SW 
ASOS 119.325 609-267-1176
270954Z AUTO 00000KT 1/2SM FG VV002 14/14 A3023 RMK AO2 SLP235 T01440144
KPNE 
16nm W 
270954Z AUTO 00000KT 1/4SM FG VV002 17/16 A3024 RMK AO2 SLP238 T01720161 RVRNO
KNEL 
17nm E 
271000Z AUTO 00000KT 1/4SM FG VV002 A3023 RMK AO2 SLPNO $
KMJX 
19nm E 
AWOS-3 119.875 732-244-4450
270956Z AUTO 00000KT M1/4SM -RA FG OVC002 14/14 A3024 RMK AO2 RAB50 SLP244 P0000 T01440139
KTTN 
19nm N 
ASOS 133.70 609-538-8690
270953Z 00000KT 1/4SM FG VV002 15/15 A3022 RMK AO2 SLP226 T01500150
TAF
KWRI 
6nm E 
270730Z 2707/2808 VRB03KT 1200 BR OVC003 QNH3020INS BECMG 2712/2713 14005KT 4800 BR BKN008 QNH3021INS FM271430 14006KT 9999 NSW SCT015 QNH3018INS BECMG 2717/2718 16008KT 9999 BKN030 QNH3018INS BECMG 2802/2803 VRB06KT 4800 BR BKN005 QNH3017INS TX27/2719Z TN13/2708Z
KPNE 
16nm W 
270520Z 2706/2806 17005KT P6SM SCT005 TEMPO 2707/2708 BKN005 FM270800 VRB03KT 4SM BR BKN005 TEMPO 2708/2712 1/2SM FG OVC003 FM271300 13005KT 6SM BR BKN012 FM271500 14008KT P6SM BKN025 FM271700 16007KT P6SM BKN040 FM280400 15005KT 6SM BR OVC020
KTTN 
19nm N 
270520Z 2706/2806 17005KT P6SM SCT005 TEMPO 2707/2708 BKN005 FM270800 VRB03KT 4SM BR BKN005 TEMPO 2708/2712 1/2SM FG OVC003 FM271300 VRB02KT 6SM BR BKN012 FM271500 17005KT P6SM BKN025 FM271700 17006KT P6SM BKN040 FM280400 17005KT 6SM BR OVC015
NOTAMs
Click for the latest NOTAMs
NOTAMs are issued by the DoD/FAA and will open in a separate window not controlled by AirNav.

 

 
 

Would you like to see your business listed on this page?

 If your business provides an interesting product or service to pilots, flight crews, aircraft, or users of the Pemberton Airport, you should consider listing it here.  To start the listing process, click on the button below
 
Add a business
 

Other Pages about Pemberton Airport

Update a link
 
Copyright © AirNav, LLC. All rights reserved. Privacy Policy  Contact